User: anonymous   Login
Location: Unspecified
(0.0000°N, 0.0000°E)
Time: 07:45:26
(UTC+00:00)
Language:

Explorer 25 - Orbit

View from above orbital plane
View from above orbital plane
View from above satellite
View from above satellite

Ground track
Ground track

The orbit data is extracted from the following two-line orbital elements,

1   932U 64076B   18112.82261729 +.00000082 +00000-0 +21893-4 0  9994
2   932 081.3380 140.9032 1133316 155.8316 210.0555 12.63919791442720
Epoch (UTC): 22 April 2018 19:44:34
Eccentricity: 0.1133316
inclination: 81.3380°
perigee height: 524 km
apogee height: 2289 km
right ascension of ascending node: 140.9032°
argument of perigee: 155.8316°
revolutions per day: 12.63919791
mean anomaly at epoch: 210.0555°
orbit number at epoch: 44272

The dashed part of the orbit path shows where the satellite is in the earth's shadow,  

DLR